Home   Weather   Lugano   Past weeks
Flag for Switzerland

Past Weather in Lugano, Switzerland — Yesterday and Last 2 Weeks

Now
75 °F

Overcast.


Feels Like: 75 °F
Forecast: 98 / 71 °F
Wind: 1 mph from North

Location: Lugano Airport

Current Time: Jun 26, 2019 at 8:06:40 am

Latest Report: Jun 26, 2019 at 7:20 am


Visibility: N/A

Pressure: 30.27 "Hg

Humidity: 83%

Dew Point: 70 °F

Location of LuganoLocation

Past Weather in Lugano — Graph

°F

Lugano Temperature Yesterday

Maximum temperature yesterday: 90 °F (at 2:50 pm)
Minimum temperature yesterday: 68 °F (at 4:20 am)
Average temperature yesterday: 79 °F

High & Low Weather Summary for the Past Weeks

 TemperatureHumidityPressure
High90 °F (Jun 25, 2:50 pm)100% (Jun 11, 6:20 am)30.27 "Hg (Jun 11, 6:20 am)
Low54 °F (Jun 13, 4:50 am)28% (Jun 16, 7:20 pm)29.80 "Hg (Jun 11, 6:20 am)
Average72 °F67%30.00 "Hg
* Reported Jun 11 6:20 am — Jun 26 6:50 am, Lugano. Weather by CustomWeather, © 2019

Note: Actual official high and low records may vary slightly from our data, if they occured in-between our weather recording intervals... More about our weather records

Advertising

Lugano Weather History for the Previous 24 Hours

Scroll right to see more
 ConditionsComfort  
Time TempWeatherWind HumidityBarometerVisibility
6:50 am
Wed, Jun 26
75 °FOvercast.1 mph83%30.27 "HgN/A
6:20 am75 °FOvercast.1 mph83%30.27 "HgN/A
5:50 am75 °FOvercast.1 mph83%30.27 "HgN/A
5:20 am75 °FOvercast.1 mph83%30.27 "HgN/A
4:50 am75 °FOvercast.1 mph83%30.27 "HgN/A
4:20 am75 °FOvercast.2 mph83%30.27 "HgN/A
3:50 am75 °FOvercast.1 mph83%30.27 "HgN/A
3:20 am75 °FOvercast.No wind83%30.27 "HgN/A
2:50 am73 °FOvercast.1 mph89%30.27 "HgN/A
2:20 am73 °FOvercast.2 mph89%30.27 "HgN/A
1:50 am73 °FPassing clouds.1 mph83%30.27 "HgN/A
1:20 am75 °FClear.1 mph78%30.27 "Hg10 mi
12:50 am73 °FClear.1 mph89%30.27 "Hg10 mi
12:20 am75 °FClear.2 mph78%30.27 "Hg10 mi
11:50 pm
Tue, Jun 25
75 °FClear.1 mph78%30.24 "Hg10 mi
11:20 pm77 °FClear.1 mph74%30.24 "Hg10 mi
10:50 pm77 °FClear.2 mph74%30.24 "Hg10 mi
10:20 pm79 °FClear.No wind74%30.24 "Hg10 mi
9:50 pm81 °FClear.2 mph74%30.21 "Hg10 mi
9:20 pm81 °FClear.2 mph74%30.18 "Hg10 mi
8:50 pm82 °FSunny.3 mph70%30.18 "Hg10 mi
8:20 pm84 °FSunny.3 mph66%30.18 "Hg10 mi
7:50 pm86 °FSunny.3 mph59%30.18 "Hg10 mi
7:20 pm90 °FPassing clouds.5 mph49%30.18 "HgN/A
6:50 pm90 °FSunny.5 mph49%30.18 "Hg10 mi
6:20 pm90 °FSunny.6 mph49%30.18 "Hg10 mi
5:50 pm90 °FSunny.7 mph49%30.18 "Hg10 mi
5:20 pm90 °FPassing clouds.7 mph49%30.15 "HgN/A
4:50 pm90 °FSunny.7 mph49%30.15 "Hg10 mi
4:20 pm90 °FSunny.6 mph49%30.15 "Hg10 mi
3:50 pm90 °FSunny.6 mph46%30.18 "Hg10 mi
3:20 pm90 °FSunny.5 mph49%30.18 "Hg10 mi
2:50 pm90 °FSunny.6 mph46%30.18 "Hg10 mi
2:20 pm88 °FPassing clouds.6 mph49%30.18 "HgN/A
1:50 pm88 °FPassing clouds.7 mph49%30.18 "HgN/A
1:20 pm88 °FPassing clouds.6 mph49%30.18 "HgN/A
12:50 pm86 °FPassing clouds.5 mph52%30.18 "HgN/A
12:20 pm86 °FPassing clouds.5 mph49%30.18 "HgN/A
11:50 am84 °FPassing clouds.5 mph55%30.18 "Hg6 mi
11:20 am82 °FPassing clouds.5 mph58%30.18 "Hg6 mi
10:50 am81 °FPassing clouds.3 mph62%30.21 "Hg6 mi
10:20 am81 °FPassing clouds.3 mph58%30.21 "Hg6 mi
9:50 am79 °FPassing clouds.2 mph65%30.21 "Hg6 mi
9:20 am79 °FPassing clouds.1 mph65%30.21 "Hg6 mi
8:50 am77 °FPassing clouds.1 mph69%30.21 "Hg6 mi
8:20 am75 °FClear.1 mph74%30.21 "Hg6 mi
Weather by CustomWeather, © 2019

See weather overview